Temperature
15 15 15 16 14 12 14 15 15 16 16 17 18 19 18 17 18 18 18 18 18 18 17 17 17 17 17 17 17 17 17 17 17 17 17 16 16 16 16 16 16 16 16 16 15 15 15 15 15
14 15 15 15 12 13 14 14 15 16 17 18 18 18 17 17 18 18 18 17 18 17 17 17 17 17 17 17 17 17 17 17 17 17 16 16 16 16 16 16 16 16 16 16 15 15 15 15 15
14 15 15 12 12 13 15 15 15 16 17 18 17 17 17 17 17 17 18 17 17 17 17 17 17 17 17 17 17 17 17 17 16 16 16 16 16 16 16 16 16 16 15 15 15 15 15 15 15
14 14 14 12 13 13 14 15 15 15 17 17 17 16 17 17 17 17 17 17 17 17 17 17 17 17 17 17 17 17 17 16 16 16 16 16 16 16 16 16 16 15 15 15 15 15 15 15 14
14 14 12 12 13 13 13 14 16 15 16 16 16 15 16 17 17 17 17 17 17 16 16 16 16 17 17 17 16 16 16 16 16 16 16 16 16 16 16 15 15 15 15 15 15 15 15 14 14
13 11 11 12 13 13 13 15 16 15 16 16 16 15 16 16 17 17 17 16 16 16 16 16 16 16 16 16 16 16 16 16 16 16 16 16 15 15 15 15 15 15 15 15 15 15 14 14 14
12 10 11 12 12 13 14 16 15 15 15 16 16 15 15 16 16 16 16 16 16 16 16 16 16 16 16 16 16 16 16 16 16 16 16 15 15 15 15 15 15 15 15 15 15 14 14 14 14
12 10 11 11 12 14 15 16 16 16 15 16 16 15 15 16 16 16 15 15 15 15 16 16 15 16 16 16 16 16 16 15 15 15 15 15 15 15 15 15 15 15 15 15 14 14 14 14 14
12 10 11 11 12 14 14 14 15 16 15 15 15 16 16 15 15 15 15 15 15 15 15 15 15 15 15 15 15 15 15 15 15 15 15 15 15 15 15 15 15 15 14 14 14 14 14 14 14
11 10 11 12 12 13 13 14 14 15 14 14 15 15 15 15 15 15 15 15 15 15 15 15 15 15 15 15 15 15 15 15 15 15 15 15 15 15 15 15 15 14 14 14 14 14 14 13 13
10 10 11 12 13 13 13 13 14 14 13 14 14 15 15 14 14 15 15 15 15 15 15 15 15 15 15 15 15 15 15 15 15 15 15 15 15 15 15 15 14 14 14 14 14 13 13 13 13
9 10 11 12 13 13 13 13 13 13 14 15 15 15 14 14 14 14 15 15 15 15 15 15 15 15 15 15 15 15 15 15 15 15 15 15 15 15 15 15 14 14 14 14 13 13 13 13 13
9 10 11 12 12 12 12 12 12 13 14 15 15 14 14 14 14 14 14 14 14 15 15 15 15 15 15 15 15 15 15 15 15 15 15 15 15 15 14 14 14 14 14 13 13 13 13 13 13
9 10 10 11 11 12 11 11 12 12 13 13 14 13 13 14 14 14 14 14 14 14 15 15 15 15 15 15 15 15 15 15 15 14 14 14 14 14 14 14 14 14 14 13 13 13 13 12 12
10 9 9 10 11 11 11 11 10 11 12 12 12 13 13 13 13 14 14 14 14 14 14 14 14 14 14 15 15 14 14 14 14 14 14 14 14 14 14 14 14 13 13 13 13 12 12 12 12
9 8 8 9 10 10 11 10 10 11 11 11 11 12 12 12 13 13 14 14 14 14 14 14 14 14 14 14 14 14 14 14 14 14 14 14 14 14 14 13 13 13 13 13 12 12 12 12 12
7 7 8 8 9 9 9 9 9 10 10 10 10 11 12 12 12 13 13 13 14 14 14 14 14 14 14 14 14 14 14 14 14 14 14 13 13 13 13 13 13 13 12 12 12 12 12 12 12
7 7 7 7 8 8 8 8 8 9 9 9 10 10 11 11 12 12 13 13 13 13 13 13 13 14 14 14 14 13 13 13 13 13 13 13 13 13 13 13 12 12 12 12 12 12 12 12 12
7 7 7 7 8 8 8 8 8 8 8 8 9 9 10 11 11 12 12 13 13 13 13 13 13 13 13 13 13 13 13 13 13 13 13 13 13 13 12 12 12 12 12 12 12 11 12 11 11
7 7 7 7 8 8 7 7 7 7 7 8 8 8 9 10 11 11 12 12 12 12 13 12 13 13 13 13 13 13 13 13 13 12 12 12 12 12 12 12 12 12 11 11 11 11 11 11 11
6 6 6 7 7 7 7 7 7 7 7 8 8 8 9 9 10 11 11 11 11 12 12 12 12 12 12 12 12 12 12 12 12 12 12 12 12 12 12 12 11 11 11 11 11 11 11 11 11
6 7 7 7 7 6 7 6 6 6 6 6 7 8 8 9 10 10 10 11 11 11 12 12 12 12 12 12 12 12 12 12 12 12 12 12 12 12 11 11 11 11 11 11 11 11 10 10 10
6 7 7 7 6 5 6 6 6 6 6 6 6 7 8 9 9 9 10 10 11 11 11 11 11 11 11 11 11 11 11 12 12 11 11 11 11 11 11 11 11 11 11 10 10 10 10 10 10
6 6 6 5 5 5 5 5 5 5 6 6 6 6 7 8 9 9 9 10 10 10 10 10 11 11 11 11 11 11 11 11 11 11 11 11 11 11 11 11 10 10 10 10 10 10 10 10 10
5 5 5 5 5 5 5 5 5 5 5 5 6 6 7 7 8 8 9 9 9 9 10 10 10 10 10 10 10 10 10 10 10 11 10 10 10 10 10 10 10 10 10 10 10 10 9 9 9
4 5 5 5 5 4 4 4 5 5 5 5 5 5 6 6 7 7 8 8 9 9 9 9 9 9 9 9 9 9 10 10 10 10 10 10 10 10 10 10 10 10 9 9 9 9 9 9 9
4 4 4 3 3 3 3 3 4 4 4 4 4 5 5 5 6 7 7 8 8 8 8 9 9 9 9 9 9 9 9 9 9 9 9 9 9 9 9 9 9 9 9 9 9 9 8 8 8
4 3 3 3 4 4 4 3 4 4 4 4 3 4 4 5 5 6 7 7 7 8 8 8 8 8 8 8 8 8 8 8 8 8 8 8 8 8 8 8 8 8 8 8 8 8 8 8 8
3 3 2 2 2 3 4 4 4 3 3 3 3 4 4 4 5 5 6 6 6 7 7 7 7 7 7 7 7 7 7 7 7 7 8 8 7 7 7 8 8 7 7 7 7 7 7 7 7
2 2 2 3 2 1 2 3 4 2 2 2 3 3 3 4 4 5 5 5 6 6 6 6 6 6 6 6 7 7 7 7 7 7 7 7 7 7 7 7 7 7 7 7 7 7 7 7 7
Wind_Speed
7 4 2 4 5 3 4 5 4 3 3 2 2 4 6 6 5 3 1 7 11 12 14 17 18 17 17 16 16 15 16 16 16 16 16 16 15 15 14 15 14 15 15 16 16 16 16 15 16
2 2 4 4 4 3 6 6 5 5 4 2 2 3 4 1 1 5 5 6 12 13 15 16 18 17 17 16 16 16 16 16 16 16 16 15 15 14 14 14 14 15 15 15 15 15 14 14 15
1 2 3 4 4 7 6 5 6 2 2 2 2 2 3 2 3 5 5 10 12 12 14 17 18 18 17 17 16 16 16 16 15 15 15 15 15 14 14 14 14 14 14 14 14 14 14 13 13
2 3 3 3 7 7 5 3 4 2 0 1 4 2 0 1 3 4 9 11 12 10 13 17 18 18 17 17 16 16 15 15 15 15 15 14 14 14 14 14 13 14 14 14 14 13 13 13 13
3 3 2 3 7 5 5 4 2 3 2 1 3 3 1 4 3 9 11 12 12 10 12 16 17 17 17 17 16 15 15 15 14 14 14 14 13 13 14 13 13 13 13 13 13 13 12 13 12
2 3 4 7 7 5 4 4 1 1 1 1 4 3 0 2 6 10 11 10 10 10 11 14 16 16 16 16 15 15 14 14 14 13 13 13 13 13 13 13 12 12 13 12 12 12 12 12 12
4 4 6 6 5 4 3 3 4 3 2 3 4 4 1 2 5 9 10 9 9 10 10 10 13 14 15 15 14 14 14 13 13 13 13 12 12 12 12 12 12 12 11 11 11 11 11 11 11
4 3 4 4 5 5 2 2 2 3 3 1 4 6 5 5 8 9 9 9 8 8 8 8 10 11 12 12 13 13 13 13 13 13 13 12 11 11 11 11 11 11 10 10 10 10 10 10 10
3 3 6 6 6 4 1 1 1 1 3 1 0 2 2 10 11 11 9 7 8 8 7 7 8 9 10 10 11 12 12 12 12 11 12 11 9 9 9 9 10 10 10 9 9 9 9 9 8
4 6 8 4 3 2 0 2 1 2 2 1 2 2 6 10 13 13 12 12 11 9 8 7 7 8 9 9 9 9 9 10 10 10 10 9 9 8 8 9 9 9 9 8 8 8 8 7 7
4 6 4 3 2 1 1 0 0 4 2 4 5 6 10 10 11 11 11 11 10 9 7 7 7 8 8 7 7 7 7 8 9 10 10 9 8 7 7 6 6 7 7 7 6 6 6 6 5
3 2 2 2 2 1 1 0 0 2 4 2 4 9 12 11 11 11 11 9 8 8 7 7 7 7 7 7 7 6 6 6 6 8 9 9 6 5 5 5 5 5 6 6 5 5 5 5 4
3 2 1 1 2 1 1 0 1 3 3 2 5 7 10 10 9 8 7 7 7 7 7 7 7 7 6 7 6 6 6 6 7 8 8 9 6 5 5 4 5 5 5 5 5 4 4 3 3
3 2 1 1 1 1 0 3 0 3 2 4 5 6 8 8 8 6 6 7 7 7 7 6 7 7 7 5 5 5 6 6 7 7 8 9 8 7 5 4 4 4 5 5 5 4 3 3 3
3 1 1 2 2 1 1 4 3 2 2 3 3 4 5 5 5 6 7 7 7 6 6 6 7 7 7 6 6 6 6 7 6 6 8 8 8 8 6 5 4 4 4 5 5 4 3 2 2
3 2 2 3 2 1 3 5 3 1 3 2 2 3 4 3 4 4 4 4 5 6 6 6 6 6 6 6 5 5 6 6 5 6 7 7 8 8 7 5 4 5 5 4 4 3 2 1 1
2 4 5 2 1 2 3 4 3 2 3 2 1 2 3 2 0 1 2 3 4 5 6 5 5 6 6 5 5 5 5 5 5 5 5 6 7 8 7 5 5 6 4 3 3 2 2 2 1
6 4 4 4 1 3 2 3 4 2 2 1 1 1 2 2 3 1 1 2 3 4 4 5 4 5 5 5 4 3 3 3 4 4 5 6 6 7 7 5 5 6 4 2 2 2 2 2 2
4 5 4 3 2 2 3 3 4 2 0 1 1 1 2 3 2 0 1 2 3 3 4 5 5 4 5 4 4 3 3 2 2 3 5 6 6 6 5 4 4 4 3 3 3 2 2 1 1
4 4 3 0 1 1 1 3 3 1 2 3 3 2 3 2 1 1 1 2 3 4 4 4 4 5 5 5 4 3 3 2 2 2 3 5 6 6 5 5 4 4 3 3 3 2 2 1 1
2 5 5 3 1 2 2 3 3 2 0 1 1 1 1 2 2 2 1 2 2 3 3 4 4 4 4 4 3 3 3 2 2 2 2 3 5 6 5 5 5 4 4 4 3 3 3 3 1
3 3 4 4 3 1 2 3 5 3 2 2 3 2 2 3 2 2 1 2 2 3 2 2 2 3 3 4 5 6 5 4 4 3 2 2 4 5 5 5 5 4 3 3 3 3 2 3 3
2 2 3 3 3 1 0 2 5 2 3 5 4 3 3 3 2 2 1 2 2 1 2 2 2 2 2 4 5 6 4 3 2 2 3 2 2 3 4 5 5 4 3 3 3 2 2 2 3
2 4 5 4 3 2 4 4 5 3 5 4 4 3 3 3 2 1 1 0 1 2 2 2 2 2 2 3 3 4 4 4 4 3 3 2 1 1 2 3 4 4 3 3 3 3 3 2 2
4 5 2 1 1 4 2 3 6 4 4 5 5 4 3 2 1 1 1 1 1 1 1 1 2 1 1 2 3 3 4 5 5 4 3 3 2 1 2 2 3 3 3 3 3 3 2 2 2
2 3 5 4 4 2 1 5 6 4 3 3 3 2 2 2 2 2 1 1 1 1 1 1 2 1 1 2 2 2 3 3 3 3 3 3 2 2 2 3 2 2 3 3 3 2 2 2 2
2 1 2 4 2 1 4 5 7 3 3 2 2 1 2 3 3 3 2 1 1 1 1 1 2 1 1 1 1 1 2 2 2 3 3 2 1 2 3 3 3 2 3 3 3 2 2 2 1
2 4 3 3 3 2 3 4 4 4 5 4 2 2 3 3 3 3 2 2 1 0 0 1 1 1 1 2 2 1 1 2 2 3 3 2 2 2 3 3 3 2 3 3 3 2 2 2 1
2 2 2 2 2 4 3 6 4 5 4 4 5 3 2 2 2 2 2 2 2 2 2 2 1 1 1 1 2 2 2 2 2 2 2 2 2 2 2 3 3 3 3 3 3 2 2 2 1
2 3 4 4 3 2 2 6 3 3 3 3 3 3 2 2 2 1 2 2 2 2 2 1 1 1 1 1 2 1 2 2 2 2 2 2 2 2 3 3 3 3 3 3 3 3 3 2 2
Wind_Direction
338 9 61 58 63 64 232 240 225 229 220 220 163 151 154 156 166 180 112 139 135 142 147 146 146 144 140 136 133 130 126 125 122 120 118 117 115 112 109 107 103 101 100 98 96 94 92 90 90
345 28 57 68 113 186 248 237 221 217 192 138 86 101 112 157 122 119 135 145 138 140 143 144 144 142 139 136 133 131 128 126 124 122 120 119 118 115 111 108 105 104 102 100 99 96 93 91 90
22 52 93 101 158 193 220 227 217 244 223 140 104 83 132 162 149 153 156 144 133 135 140 144 142 140 139 136 133 132 131 129 126 124 123 121 120 116 114 112 109 107 104 102 101 98 95 93 91
76 59 69 129 212 219 217 230 191 187 272 108 125 100 32 3 172 158 141 139 132 132 138 144 143 142 140 137 134 133 132 131 129 127 126 124 122 119 116 114 112 110 107 105 103 101 98 96 95
68 101 133 219 232 239 239 248 187 167 167 140 132 131 355 350 102 130 137 139 138 136 137 145 145 144 142 140 137 135 134 132 131 131 129 127 124 121 119 117 115 114 111 109 107 104 101 98 98
92 106 168 218 232 251 251 228 170 146 153 126 135 127 99 41 115 134 137 136 136 138 136 144 146 144 144 142 140 139 137 135 133 132 131 130 127 125 123 120 118 117 114 111 109 107 104 100 99
143 149 197 208 221 243 233 187 170 167 166 198 161 131 135 131 136 135 129 125 126 131 133 137 142 144 144 143 142 142 140 138 136 134 130 128 130 129 127 123 121 118 115 112 110 109 105 102 101
151 145 189 210 202 231 236 166 157 160 195 180 143 148 177 172 139 129 125 124 127 129 131 132 133 139 140 143 145 143 142 141 137 133 128 126 126 128 126 123 123 120 117 115 112 109 107 103 100
128 168 209 206 195 225 241 135 4 59 119 92 231 200 178 143 139 136 134 135 143 144 142 136 134 135 138 142 145 142 141 138 134 130 126 120 116 118 122 124 125 124 121 116 112 108 106 102 97
157 203 219 214 202 214 215 162 178 96 99 66 11 38 119 142 150 154 159 163 165 165 160 151 142 141 140 143 137 135 135 132 130 128 125 120 117 117 123 125 126 125 123 118 112 107 101 95 92
178 205 216 251 248 247 217 265 176 140 188 207 188 162 149 153 159 164 168 170 170 165 163 159 152 149 147 141 137 134 134 132 133 135 133 129 120 116 115 115 117 119 120 113 110 100 97 97 95
180 220 208 260 299 318 264 198 83 187 230 231 176 157 155 163 169 173 173 171 164 162 164 159 150 150 152 149 146 141 139 139 140 144 144 139 128 120 119 115 121 123 126 120 114 107 102 100 100
207 214 222 264 325 338 30 302 223 269 307 58 115 143 160 168 172 172 170 165 163 168 167 164 154 154 152 147 150 153 152 149 151 150 152 151 143 140 134 129 129 134 137 134 129 122 113 101 96
195 188 237 264 270 326 33 305 321 285 54 87 123 156 171 174 174 163 163 170 172 170 168 164 163 159 151 151 153 157 157 154 153 156 161 160 154 150 146 140 136 141 151 150 143 137 125 110 104
146 127 318 277 223 256 82 313 263 288 80 96 133 158 162 166 166 174 180 179 179 174 166 163 166 155 153 154 154 152 154 153 154 158 163 164 161 158 153 149 148 155 156 148 134 122 115 105 96
131 154 230 270 188 229 137 250 290 359 112 117 130 149 159 169 174 179 174 173 174 167 164 165 162 155 155 151 147 147 151 150 154 157 161 168 168 164 155 149 158 161 154 144 140 139 137 136 127
139 194 205 254 180 131 153 241 291 350 109 129 140 156 169 182 198 190 169 170 169 169 165 162 157 160 158 147 143 143 143 147 154 156 160 168 171 171 162 157 160 156 149 147 157 150 154 158 155
185 179 184 205 218 130 175 250 304 334 122 172 189 171 177 204 239 236 173 157 156 160 159 158 158 156 149 137 126 122 121 130 147 157 165 166 169 171 163 160 160 154 149 163 163 159 143 154 156
154 153 178 211 221 130 186 247 285 315 299 240 232 208 221 240 279 335 131 139 137 140 152 165 163 162 155 153 157 161 171 170 165 162 167 165 165 165 158 156 156 158 168 180 173 164 150 144 135
152 152 165 183 123 147 183 274 290 304 217 220 218 230 248 266 335 350 75 131 155 166 172 171 177 177 175 174 170 164 153 157 164 144 154 164 165 165 164 161 162 161 163 161 176 163 162 147 138
175 176 177 179 58 74 118 302 285 304 347 349 302 271 274 262 271 264 226 207 180 176 182 186 187 184 178 161 135 116 104 99 137 168 179 173 172 168 166 165 159 161 164 170 181 179 173 173 165
208 190 170 156 132 245 144 242 279 265 287 285 285 299 291 298 295 275 233 227 217 212 187 171 169 162 155 154 158 159 169 183 198 190 186 166 166 167 167 164 160 159 162 165 179 184 183 162 174
193 154 133 134 133 77 78 180 283 294 260 266 273 276 280 281 269 274 252 238 229 193 163 155 134 133 142 158 170 174 172 172 152 141 159 161 146 151 158 157 154 156 160 165 163 171 176 171 170
123 84 66 58 87 217 215 181 272 242 232 252 257 267 281 287 280 280 286 32 36 59 86 110 128 122 136 157 164 171 173 158 145 151 170 171 152 140 142 148 148 150 152 160 166 174 173 176 165
91 106 89 61 188 235 198 195 248 253 238 234 242 258 282 304 323 316 359 44 41 65 90 119 126 121 139 156 173 176 173 169 173 178 180 172 165 171 178 152 148 144 144 144 144 155 165 172 170
196 146 155 178 199 263 208 225 250 265 271 266 265 269 312 331 333 311 266 215 196 161 142 142 145 145 154 165 183 164 165 171 174 174 176 177 182 180 163 150 140 132 131 130 128 128 151 148 156
137 151 143 124 105 168 247 279 295 267 307 313 318 332 314 317 322 314 306 286 193 165 180 187 173 159 162 153 136 137 140 151 163 164 159 157 154 141 145 145 136 129 129 130 127 128 134 140 157
129 139 97 119 154 229 269 259 253 268 278 291 289 298 302 322 334 336 342 348 11 93 84 95 124 147 137 121 135 139 134 143 146 143 146 152 151 135 139 139 142 142 133 131 130 126 135 134 148
75 110 110 124 161 172 237 265 241 244 261 267 266 264 277 302 315 332 351 1 27 61 83 85 84 95 109 120 117 125 134 126 129 144 152 159 150 146 152 157 155 155 150 140 139 146 146 143 145
165 169 156 171 213 184 202 271 296 259 281 277 285 309 323 324 330 1 22 27 33 47 65 77 93 107 112 120 114 113 118 121 130 151 155 149 147 149 154 155 151 151 152 150 156 163 153 155 166
Height
1500 1501 1503 1506 1510 1520 1519 1511 1506 1504 1502 1501 1501 1502 1503 1506 1510 1513 1508 1509 1513 1516 1520 1523 1526 1529 1531 1533 1535 1536 1538 1539 1540 1541 1542 1543 1544 1545 1546 1547 1548 1549 1550 1550 1551 1551 1552 1552 1553
1499 1502 1505 1505 1515 1524 1518 1507 1504 1500 1498 1499 1500 1501 1502 1503 1504 1505 1505 1509 1513 1517 1520 1523 1526 1529 1531 1533 1535 1537 1538 1540 1541 1542 1543 1544 1545 1546 1547 1548 1549 1550 1551 1551 1552 1552 1553 1553 1554
1499 1501 1504 1506 1514 1516 1509 1501 1499 1498 1498 1498 1499 1501 1502 1503 1503 1504 1506 1509 1514 1517 1521 1524 1527 1529 1532 1534 1536 1537 1539 1540 1542 1543 1544 1545 1546 1547 1548 1549 1550 1551 1551 1552 1553 1553 1554 1554 1555
1499 1502 1504 1509 1509 1505 1500 1496 1496 1497 1497 1498 1499 1501 1502 1504 1504 1505 1507 1510 1514 1518 1521 1524 1527 1530 1532 1534 1536 1538 1539 1541 1542 1544 1545 1546 1547 1548 1549 1550 1551 1552 1552 1553 1554 1554 1555 1555 1556
1498 1500 1505 1508 1504 1500 1496 1495 1495 1496 1496 1497 1498 1500 1502 1503 1504 1505 1508 1511 1514 1518 1522 1525 1528 1530 1533 1535 1537 1538 1540 1541 1543 1544 1545 1547 1548 1549 1550 1551 1552 1552 1553 1554 1555 1555 1556 1556 1557
1498 1499 1507 1507 1501 1497 1494 1494 1494 1495 1496 1497 1498 1500 1501 1503 1504 1506 1509 1512 1516 1519 1522 1525 1528 1531 1533 1535 1537 1539 1540 1542 1543 1545 1546 1547 1548 1549 1551 1552 1552 1553 1554 1555 1555 1556 1557 1557 1558
1496 1499 1502 1501 1499 1496 1493 1492 1493 1494 1496 1497 1497 1500 1501 1503 1505 1507 1510 1513 1516 1519 1522 1525 1528 1531 1533 1535 1537 1539 1541 1542 1544 1545 1546 1548 1549 1550 1551 1552 1553 1554 1555 1555 1556 1557 1558 1558 1559
1493 1497 1499 1500 1498 1494 1491 1491 1492 1493 1495 1497 1497 1498 1500 1502 1505 1507 1511 1514 1517 1520 1522 1525 1528 1530 1533 1535 1537 1539 1541 1542 1544 1545 1547 1548 1549 1550 1552 1553 1554 1555 1555 1556 1557 1558 1558 1559 1560
1492 1498 1497 1496 1495 1492 1490 1490 1491 1493 1494 1496 1496 1497 1499 1501 1504 1507 1510 1513 1516 1519 1522 1524 1527 1530 1532 1535 1537 1539 1541 1542 1544 1545 1547 1548 1549 1550 1552 1553 1554 1555 1556 1556 1557 1558 1559 1559 1560
1490 1494 1492 1490 1489 1489 1489 1489 1491 1492 1493 1495 1495 1496 1498 1500 1503 1505 1508 1511 1514 1517 1520 1523 1526 1529 1531 1534 1536 1538 1540 1542 1543 1545 1547 1548 1549 1550 1551 1553 1554 1555 1556 1557 1557 1558 1559 1559 1560
1487 1489 1488 1488 1488 1488 1488 1489 1490 1491 1493 1493 1493 1494 1497 1499 1502 1504 1506 1509 1512 1516 1519 1522 1525 1528 1530 1532 1535 1537 1539 1541 1543 1544 1546 1548 1549 1550 1551 1552 1553 1554 1555 1556 1557 1558 1559 1559 1560
1486 1486 1486 1487 1487 1488 1488 1488 1490 1490 1491 1491 1492 1493 1495 1498 1500 1502 1505 1508 1511 1515 1518 1521 1523 1526 1529 1531 1534 1536 1538 1540 1542 1543 1545 1547 1548 1549 1550 1552 1553 1554 1555 1556 1557 1558 1558 1559 1560
1484 1485 1486 1487 1487 1488 1488 1489 1489 1489 1489 1490 1491 1493 1495 1497 1499 1502 1505 1507 1510 1513 1516 1519 1522 1524 1527 1530 1532 1535 1537 1539 1541 1542 1544 1546 1547 1548 1550 1551 1552 1553 1554 1555 1556 1557 1558 1558 1559
1483 1485 1486 1486 1487 1487 1488 1488 1489 1488 1489 1489 1490 1492 1494 1496 1498 1501 1504 1506 1508 1511 1514 1517 1520 1523 1526 1528 1531 1533 1535 1537 1539 1541 1543 1544 1546 1547 1548 1550 1551 1552 1553 1554 1555 1556 1556 1557 1558
1483 1485 1486 1486 1486 1487 1488 1489 1489 1489 1489 1488 1489 1491 1493 1495 1497 1499 1502 1504 1507 1510 1513 1515 1518 1521 1524 1526 1529 1531 1533 1535 1537 1539 1541 1543 1544 1546 1547 1548 1549 1550 1551 1552 1553 1554 1555 1556 1557
1483 1487 1490 1487 1486 1487 1492 1493 1489 1489 1488 1488 1489 1491 1493 1495 1497 1499 1501 1504 1506 1509 1511 1514 1516 1519 1521 1524 1526 1529 1531 1533 1535 1537 1539 1541 1542 1544 1545 1546 1547 1548 1550 1551 1551 1552 1553 1554 1555
1485 1490 1491 1489 1486 1487 1491 1492 1490 1489 1488 1488 1489 1490 1492 1494 1496 1498 1500 1502 1504 1507 1509 1512 1514 1517 1519 1522 1524 1527 1529 1531 1533 1535 1537 1538 1540 1542 1543 1544 1545 1546 1548 1548 1549 1550 1551 1552 1553
1486 1489 1490 1491 1487 1488 1491 1492 1490 1489 1488 1489 1489 1490 1491 1493 1494 1496 1498 1500 1503 1505 1507 1510 1512 1514 1517 1519 1521 1524 1526 1528 1530 1532 1534 1536 1538 1539 1540 1542 1543 1544 1545 1546 1547 1548 1549 1550 1551
1484 1487 1490 1489 1487 1489 1491 1492 1490 1489 1489 1489 1489 1490 1491 1492 1494 1495 1497 1498 1500 1503 1505 1507 1509 1512 1514 1516 1518 1520 1523 1525 1527 1529 1531 1533 1535 1536 1538 1539 1540 1542 1543 1544 1545 1546 1546 1547 1548
1483 1487 1489 1489 1487 1489 1492 1492 1490 1489 1489 1489 1489 1489 1490 1491 1492 1493 1494 1496 1498 1500 1502 1504 1506 1509 1511 1513 1515 1518 1520 1523 1525 1527 1528 1530 1532 1534 1535 1536 1538 1539 1540 1541 1542 1543 1543 1544 1545
1484 1486 1488 1489 1489 1490 1493 1493 1491 1489 1488 1488 1488 1488 1489 1490 1490 1491 1492 1494 1495 1497 1499 1501 1503 1506 1508 1510 1512 1515 1517 1519 1522 1523 1525 1527 1529 1531 1532 1534 1535 1536 1537 1538 1540 1540 1541 1541 1542
1485 1483 1485 1486 1491 1496 1494 1499 1493 1490 1489 1488 1487 1487 1487 1488 1489 1489 1490 1491 1493 1494 1496 1499 1501 1503 1505 1507 1509 1510 1512 1515 1518 1520 1522 1524 1526 1528 1529 1530 1532 1533 1534 1535 1536 1537 1538 1539 1539
1484 1483 1485 1487 1492 1498 1497 1501 1496 1491 1489 1487 1486 1486 1486 1487 1487 1487 1488 1489 1491 1492 1494 1496 1498 1500 1502 1503 1506 1507 1510 1512 1515 1517 1519 1521 1523 1524 1526 1527 1528 1529 1530 1531 1533 1534 1535 1535 1536
1483 1485 1488 1492 1495 1501 1499 1501 1497 1492 1487 1486 1485 1484 1484 1485 1485 1486 1487 1488 1489 1490 1491 1493 1496 1497 1499 1501 1503 1504 1506 1509 1511 1513 1516 1517 1519 1521 1523 1524 1525 1526 1527 1528 1529 1530 1531 1532 1533
1484 1489 1497 1499 1502 1502 1499 1498 1494 1486 1484 1483 1483 1482 1482 1483 1483 1483 1484 1485 1486 1487 1489 1491 1493 1495 1496 1498 1500 1501 1504 1506 1508 1510 1512 1514 1516 1517 1519 1521 1522 1523 1524 1524 1525 1527 1528 1528 1529
1488 1490 1497 1500 1501 1503 1502 1499 1490 1484 1482 1481 1481 1481 1481 1481 1481 1481 1482 1484 1485 1486 1487 1489 1490 1492 1494 1495 1497 1499 1501 1503 1504 1506 1508 1510 1512 1514 1516 1517 1518 1519 1520 1521 1522 1523 1524 1525 1525
1491 1493 1495 1501 1506 1507 1504 1498 1489 1482 1481 1480 1480 1480 1480 1479 1480 1480 1481 1481 1482 1483 1485 1486 1488 1490 1491 1493 1494 1496 1498 1500 1501 1503 1505 1507 1509 1511 1512 1514 1515 1516 1517 1518 1518 1519 1520 1521 1522
1491 1493 1498 1501 1503 1501 1500 1498 1491 1484 1481 1480 1480 1479 1479 1479 1478 1478 1478 1479 1480 1482 1483 1485 1486 1487 1489 1490 1492 1493 1495 1497 1498 1500 1501 1503 1505 1507 1509 1510 1511 1513 1513 1514 1515 1516 1517 1518 1518
1495 1497 1499 1503 1504 1504 1502 1494 1483 1482 1480 1479 1478 1477 1477 1477 1477 1477 1477 1478 1479 1480 1481 1482 1484 1485 1487 1488 1489 1491 1492 1493 1495 1497 1498 1500 1502 1503 1505 1507 1508 1509 1510 1511 1511 1512 1513 1514 1514
1495 1496 1499 1501 1506 1508 1506 1496 1481 1480 1479 1478 1477 1477 1476 1476 1475 1475 1476 1476 1477 1478 1479 1480 1481 1483 1484 1486 1487 1488 1489 1491 1492 1494 1495 1497 1498 1500 1502 1503 1504 1505 1506 1507 1508 1509 1510 1510 1511